Time,TemperatureF,DewpointF,PressureIn,WindDirection,WindDirectionDegrees,WindSpeedMPH,WindSpeedGustMPH,Humidity,HourlyPrecipIn,Conditions,Clouds,dailyrainin,SoftwareType,DateUTC
2013-02-09 00:00:00,20.3,18.6,29.26,NW,325,0.0,0.0,93,0.00,,,0.00,VWS V14.01,2013-02-09 05:00:00,
2013-02-09 00:05:00,20.3,18.6,29.23,SW,234,0.0,0.0,93,0.00,,,0.00,VWS V14.01,2013-02-09 05:05:00,
2013-02-09 00:10:00,20.3,18.6,29.23,WNW,285,0.0,0.0,93,0.00,,,0.00,VWS V14.01,2013-02-09 05:10:00,
2013-02-09 00:15:00,20.3,18.6,29.23,ESE,117,0.0,0.0,93,0.00,,,0.00,VWS V14.01,2013-02-09 05:15:00,
2013-02-09 00:20:00,20.3,18.6,29.23,ESE,117,0.0,0.0,93,0.00,,,0.00,VWS V14.01,2013-02-09 05:20:00,
2013-02-09 00:25:00,20.1,18.4,29.23,SW,235,0.0,0.0,93,0.00,,,0.00,VWS V14.01,2013-02-09 05:25:00,
2013-02-09 00:30:00,20.1,18.4,29.23,North,357,0.0,0.0,93,0.00,,,0.00,VWS V14.01,2013-02-09 05:30:00,
2013-02-09 00:35:00,19.9,18.0,29.23,WNW,299,0.0,0.0,92,0.00,,,0.00,VWS V14.01,2013-02-09 05:35:00,
2013-02-09 00:40:00,19.9,18.0,29.23,SW,229,0.0,0.0,92,0.00,,,0.00,VWS V14.01,2013-02-09 05:40:00,
2013-02-09 00:45:00,19.8,17.8,29.23,SW,226,0.0,0.0,92,0.00,,,0.00,VWS V14.01,2013-02-09 05:45:00,
2013-02-09 00:50:00,19.6,17.6,29.23,NW,321,0.0,0.0,92,0.00,,,0.00,VWS V14.01,2013-02-09 05:50:00,
2013-02-09 00:55:00,19.6,17.6,29.23,SE,133,0.0,0.0,92,0.00,,,0.00,VWS V14.01,2013-02-09 05:55:00,
2013-02-09 01:00:00,19.4,17.5,29.23,ESE,118,0.0,0.0,92,0.00,,,0.00,VWS V14.01,2013-02-09 06:00:00,
2013-02-09 01:05:00,19.4,17.5,29.23,NNW,335,0.0,0.0,92,0.00,,,0.00,VWS V14.01,2013-02-09 06:05:00,
2013-02-09 01:10:00,19.2,17.3,29.23,South,170,0.0,0.0,92,0.00,,,0.00,VWS V14.01,2013-02-09 06:10:00,
2013-02-09 01:15:00,19.2,17.3,29.23,NE,53,0.0,0.0,92,0.00,,,0.00,VWS V14.01,2013-02-09 06:15:00,
2013-02-09 01:20:00,19.2,17.3,29.23,North,353,0.0,0.0,92,0.00,,,0.00,VWS V14.01,2013-02-09 06:20:00,
2013-02-09 01:25:00,19.2,17.3,29.23,NNE,19,0.0,0.0,92,0.00,,,0.00,VWS V14.01,2013-02-09 06:25:00,
2013-02-09 01:30:00,19.2,17.3,29.23,South,180,0.0,0.0,92,0.00,,,0.00,VWS V14.01,2013-02-09 06:30:00,
2013-02-09 01:35:00,19.2,17.3,29.23,East,99,0.0,0.0,92,0.00,,,0.00,VWS V14.01,2013-02-09 06:35:00,
2013-02-09 01:40:00,19.2,17.3,29.23,East,90,0.0,0.0,92,0.00,,,0.00,VWS V14.01,2013-02-09 06:40:00,
2013-02-09 01:45:00,19.2,17.0,29.23,WNW,288,0.0,0.0,91,0.00,,,0.00,VWS V14.01,2013-02-09 06:45:00,
2013-02-09 01:50:00,19.2,17.0,29.23,WSW,239,0.0,0.0,91,0.00,,,0.00,VWS V14.01,2013-02-09 06:50:00,
2013-02-09 01:55:00,19.2,17.0,29.23,NNE,21,0.0,0.0,91,0.00,,,0.00,VWS V14.01,2013-02-09 06:55:00,
2013-02-09 02:00:00,19.2,17.0,29.26,SSE,156,0.0,0.0,91,0.00,,,0.00,VWS V14.01,2013-02-09 07:00:00,
2013-02-09 02:05:00,19.2,17.0,29.26,West,274,0.0,0.0,91,0.00,,,0.00,VWS V14.01,2013-02-09 07:05:00,
2013-02-09 02:10:00,19.2,17.0,29.26,NE,37,0.0,0.0,91,0.00,,,0.00,VWS V14.01,2013-02-09 07:10:00,
2013-02-09 02:15:00,19.2,17.0,29.26,SSE,156,0.0,0.0,91,0.00,,,0.00,VWS V14.01,2013-02-09 07:15:00,
2013-02-09 02:20:00,19.2,17.0,29.26,West,260,0.0,0.0,91,0.00,,,0.00,VWS V14.01,2013-02-09 07:20:00,
2013-02-09 02:25:00,19.0,16.9,29.26,NNE,21,0.0,0.0,91,0.00,,,0.00,VWS V14.01,2013-02-09 07:25:00,
2013-02-09 02:30:00,19.0,16.9,29.26,ENE,69,0.0,0.0,91,0.00,,,0.00,VWS V14.01,2013-02-09 07:30:00,
2013-02-09 02:35:00,19.0,16.9,29.26,NE,37,0.0,0.0,91,0.00,,,0.00,VWS V14.01,2013-02-09 07:35:00,
2013-02-09 02:40:00,19.0,16.9,29.26,SSE,157,0.0,0.0,91,0.00,,,0.00,VWS V14.01,2013-02-09 07:40:00,
2013-02-09 02:45:00,19.0,16.9,29.26,WNW,301,0.0,0.0,91,0.00,,,0.00,VWS V14.01,2013-02-09 07:45:00,
2013-02-09 02:50:00,19.0,16.9,29.26,East,96,0.0,0.0,91,0.00,,,0.00,VWS V14.01,2013-02-09 07:50:00,
2013-02-09 02:55:00,19.0,16.9,29.26,ENE,72,0.0,0.0,91,0.00,,,0.00,VWS V14.01,2013-02-09 07:55:00,
2013-02-09 03:00:00,19.2,17.0,29.26,West,270,0.0,0.0,91,0.00,,,0.00,VWS V14.01,2013-02-09 08:00:00,
2013-02-09 03:05:00,19.2,17.0,29.26,ESE,116,0.0,0.0,91,0.00,,,0.00,VWS V14.01,2013-02-09 08:05:00,
2013-02-09 03:10:00,19.4,17.2,29.26,WSW,254,0.0,0.0,91,0.00,,,0.00,VWS V14.01,2013-02-09 08:10:00,
2013-02-09 03:15:00,19.4,17.2,29.26,NW,319,0.0,0.0,91,0.00,,,0.00,VWS V14.01,2013-02-09 08:15:00,
2013-02-09 03:20:00,19.4,17.2,29.26,NNE,33,0.0,0.0,91,0.00,,,0.00,VWS V14.01,2013-02-09 08:20:00,
2013-02-09 03:25:00,19.4,17.2,29.26,WSW,245,0.0,0.0,91,0.00,,,0.00,VWS V14.01,2013-02-09 08:25:00,
2013-02-09 03:30:00,19.4,17.2,29.26,SSW,210,0.0,0.0,91,0.00,,,0.00,VWS V14.01,2013-02-09 08:30:00,
2013-02-09 03:35:00,19.4,17.2,29.26,West,273,0.0,0.0,91,0.00,,,0.00,VWS V14.01,2013-02-09 08:35:00,
2013-02-09 03:40:00,19.6,17.1,29.26,WNW,299,0.0,0.0,90,0.00,,,0.00,VWS V14.01,2013-02-09 08:40:00,
2013-02-09 03:45:00,19.6,17.1,29.26,East,80,0.0,0.0,90,0.00,,,0.00,VWS V14.01,2013-02-09 08:45:00,
2013-02-09 03:50:00,19.6,17.1,29.26,ESE,117,0.0,0.0,90,0.00,,,0.00,VWS V14.01,2013-02-09 08:50:00,
2013-02-09 03:55:00,19.6,17.1,29.26,East,82,0.0,0.0,90,0.00,,,0.00,VWS V14.01,2013-02-09 08:55:00,
2013-02-09 04:00:00,19.6,17.1,29.26,SW,230,0.0,0.0,90,0.00,,,0.00,VWS V14.01,2013-02-09 09:00:00,
2013-02-09 04:05:00,19.6,17.1,29.26,South,178,0.0,0.0,90,0.00,,,0.00,VWS V14.01,2013-02-09 09:05:00,
2013-02-09 04:10:00,19.6,17.1,29.26,SE,124,0.0,0.0,90,0.00,,,0.00,VWS V14.01,2013-02-09 09:10:00,
2013-02-09 04:15:00,19.8,17.3,29.26,WSW,252,0.0,0.0,90,0.00,,,0.00,VWS V14.01,2013-02-09 09:15:00,
2013-02-09 04:20:00,19.8,17.3,29.26,SW,224,0.0,0.0,90,0.00,,,0.00,VWS V14.01,2013-02-09 09:20:00,
2013-02-09 04:25:00,19.9,17.5,29.26,WNW,287,0.0,0.0,90,0.00,,,0.00,VWS V14.01,2013-02-09 09:25:00,
2013-02-09 04:30:00,20.1,17.9,29.26,ENE,64,0.0,0.0,91,0.00,,,0.00,VWS V14.01,2013-02-09 09:30:00,
2013-02-09 04:35:00,20.3,18.1,29.26,West,268,0.0,0.0,91,0.00,,,0.00,VWS V14.01,2013-02-09 09:35:00,
2013-02-09 04:40:00,20.3,18.1,29.26,NW,304,0.0,0.0,91,0.00,,,0.00,VWS V14.01,2013-02-09 09:40:00,
2013-02-09 04:45:00,20.5,18.3,29.26,North,0,0.0,0.0,91,0.00,,,0.00,VWS V14.01,2013-02-09 09:45:00,
2013-02-09 04:50:00,20.7,18.5,29.26,NNE,26,0.0,0.0,91,0.00,,,0.00,VWS V14.01,2013-02-09 09:50:00,
2013-02-09 04:55:00,20.8,18.6,29.26,West,278,0.0,0.0,91,0.00,,,0.00,VWS V14.01,2013-02-09 09:55:00,
2013-02-09 05:00:00,21.0,18.8,29.26,NW,322,0.0,0.0,91,0.00,,,0.00,VWS V14.01,2013-02-09 10:00:00,
2013-02-09 05:05:00,21.2,19.0,29.26,South,185,0.0,0.0,91,0.00,,,0.00,VWS V14.01,2013-02-09 10:05:00,
2013-02-09 05:10:00,21.2,19.0,29.26,ESE,119,0.0,0.0,91,0.00,,,0.00,VWS V14.01,2013-02-09 10:10:00,
2013-02-09 05:15:00,21.4,19.2,29.26,West,267,0.0,0.0,91,0.00,,,0.00,VWS V14.01,2013-02-09 10:15:00,
2013-02-09 05:20:00,21.6,19.3,29.26,South,184,0.0,0.0,91,0.00,,,0.00,VWS V14.01,2013-02-09 10:20:00,
2013-02-09 05:25:00,21.7,19.5,29.26,SW,218,0.0,0.0,91,0.00,,,0.00,VWS V14.01,2013-02-09 10:25:00,
2013-02-09 05:30:00,21.9,19.7,29.26,SSW,203,0.0,0.0,91,0.00,,,0.00,VWS V14.01,2013-02-09 10:30:00,
2013-02-09 05:35:00,22.1,19.9,29.26,South,190,0.0,0.0,91,0.00,,,0.00,VWS V14.01,2013-02-09 10:35:00,
2013-02-09 05:40:00,22.1,19.9,29.26,SSW,203,0.0,0.0,91,0.00,,,0.00,VWS V14.01,2013-02-09 10:40:00,
2013-02-09 05:45:00,22.3,20.3,29.26,East,99,0.0,0.0,92,0.00,,,0.00,VWS V14.01,2013-02-09 10:45:00,
2013-02-09 05:50:00,22.5,20.5,29.26,West,280,0.0,0.0,92,0.00,,,0.00,VWS V14.01,2013-02-09 10:50:00,
2013-02-09 05:55:00,22.5,20.5,29.29,SSE,154,0.0,0.0,92,0.00,,,0.00,VWS V14.01,2013-02-09 10:55:00,
2013-02-09 06:00:00,22.5,20.5,29.29,North,357,0.0,0.0,92,0.00,,,0.00,VWS V14.01,2013-02-09 11:00:00,
2013-02-09 06:05:00,22.5,20.5,29.29,SSE,168,0.0,0.0,92,0.00,,,0.00,VWS V14.01,2013-02-09 11:05:00,
2013-02-09 06:10:00,22.5,20.5,29.29,North,357,0.0,0.0,92,0.00,,,0.00,VWS V14.01,2013-02-09 11:10:00,
2013-02-09 06:15:00,22.5,20.5,29.29,North,350,0.0,0.0,92,0.00,,,0.00,VWS V14.01,2013-02-09 11:15:00,
2013-02-09 06:20:00,22.5,20.5,29.29,WSW,245,0.0,0.0,92,0.00,,,0.00,VWS V14.01,2013-02-09 11:20:00,
2013-02-09 06:25:00,22.5,20.5,29.29,SW,228,0.0,0.0,92,0.00,,,0.00,VWS V14.01,2013-02-09 11:25:00,
2013-02-09 06:30:00,22.6,20.7,29.29,SSW,192,0.0,0.0,92,0.00,,,0.00,VWS V14.01,2013-02-09 11:30:00,
2013-02-09 06:35:00,22.6,20.7,29.29,WSW,253,0.0,0.0,92,0.00,,,0.00,VWS V14.01,2013-02-09 11:35:00,
2013-02-09 06:40:00,22.6,20.7,29.29,North,4,0.0,0.0,92,0.00,,,0.00,VWS V14.01,2013-02-09 11:40:00,
2013-02-09 06:45:00,22.6,20.7,29.29,SE,145,0.0,0.0,92,0.00,,,0.00,VWS V14.01,2013-02-09 11:45:00,
2013-02-09 06:50:00,22.6,20.7,29.29,East,85,0.0,0.0,92,0.00,,,0.00,VWS V14.01,2013-02-09 11:50:00,
2013-02-09 06:55:00,22.6,20.7,29.29,NNW,343,0.0,0.0,92,0.00,,,0.00,VWS V14.01,2013-02-09 11:55:00,
2013-02-09 07:00:00,22.6,20.7,29.32,SW,216,0.0,0.0,92,0.00,,,0.00,VWS V14.01,2013-02-09 12:00:00,
2013-02-09 07:05:00,22.6,20.7,29.32,NE,38,0.0,0.0,92,0.00,,,0.00,VWS V14.01,2013-02-09 12:05:00,
2013-02-09 07:10:00,22.6,20.7,29.32,NE,38,0.0,0.0,92,0.00,,,0.00,VWS V14.01,2013-02-09 12:10:00,
2013-02-09 07:15:00,22.6,20.7,29.32,West,281,0.0,0.0,92,0.00,,,0.00,VWS V14.01,2013-02-09 12:15:00,
2013-02-09 07:20:00,22.8,20.9,29.32,SSW,198,0.0,0.0,92,0.00,,,0.00,VWS V14.01,2013-02-09 12:20:00,
2013-02-09 07:25:00,22.8,20.9,29.32,ENE,57,0.0,0.0,92,0.00,,,0.00,VWS V14.01,2013-02-09 12:25:00,
2013-02-09 07:30:00,22.8,20.9,29.32,ENE,59,0.0,0.0,92,0.00,,,0.00,VWS V14.01,2013-02-09 12:30:00,
2013-02-09 07:35:00,22.8,20.9,29.32,SSW,196,0.0,0.0,92,0.00,,,0.00,VWS V14.01,2013-02-09 12:35:00,
2013-02-09 07:40:00,22.8,20.9,29.32,East,98,0.0,0.0,92,0.00,,,0.00,VWS V14.01,2013-02-09 12:40:00,
2013-02-09 07:45:00,22.8,20.9,29.32,ENE,58,0.0,0.0,92,0.00,,,0.00,VWS V14.01,2013-02-09 12:45:00,
2013-02-09 07:50:00,22.8,20.9,29.32,South,175,0.0,0.0,92,0.00,,,0.00,VWS V14.01,2013-02-09 12:50:00,
2013-02-09 07:55:00,22.8,20.9,29.32,NNW,340,0.0,0.0,92,0.00,,,0.00,VWS V14.01,2013-02-09 12:55:00,
2013-02-09 08:00:00,22.8,20.9,29.35,WSW,247,0.0,0.0,92,0.00,,,0.00,VWS V14.01,2013-02-09 13:00:00,
2013-02-09 08:05:00,23.0,21.0,29.35,NE,36,0.0,0.0,92,0.00,,,0.00,VWS V14.01,2013-02-09 13:05:00,
2013-02-09 08:10:00,23.0,21.3,29.35,SW,217,0.0,0.0,93,0.00,,,0.00,VWS V14.01,2013-02-09 13:10:00,
2013-02-09 08:15:00,23.0,21.3,29.35,ESE,114,0.0,0.0,93,0.00,,,0.00,VWS V14.01,2013-02-09 13:15:00,
2013-02-09 08:20:00,23.2,21.2,29.35,WSW,240,0.0,0.0,92,0.00,,,0.00,VWS V14.01,2013-02-09 13:20:00,
2013-02-09 08:25:00,23.2,21.2,29.35,WSW,258,0.0,0.0,92,0.00,,,0.00,VWS V14.01,2013-02-09 13:25:00,
2013-02-09 08:30:00,23.4,21.4,29.35,SSE,158,0.0,0.0,92,0.00,,,0.00,VWS V14.01,2013-02-09 13:30:00,
2013-02-09 08:35:00,23.4,21.4,29.35,East,85,0.0,0.0,92,0.00,,,0.00,VWS V14.01,2013-02-09 13:35:00,
2013-02-09 08:40:00,23.4,21.4,29.35,South,183,0.0,0.0,92,0.00,,,0.00,VWS V14.01,2013-02-09 13:40:00,
2013-02-09 08:45:00,23.4,21.4,29.35,SW,218,0.0,0.0,92,0.00,,,0.00,VWS V14.01,2013-02-09 13:45:00,
2013-02-09 08:50:00,23.2,21.2,29.35,NE,43,0.0,0.0,92,0.00,,,0.00,VWS V14.01,2013-02-09 13:50:00,
2013-02-09 08:55:00,23.2,21.2,29.35,WNW,303,0.0,0.0,92,0.00,,,0.00,VWS V14.01,2013-02-09 13:55:00,
2013-02-09 09:00:00,23.4,21.4,29.35,SSW,208,0.0,0.0,92,0.00,,,0.00,VWS V14.01,2013-02-09 14:00:00,
2013-02-09 09:05:00,23.4,21.4,29.35,North,1,0.0,0.0,92,0.00,,,0.00,VWS V14.01,2013-02-09 14:05:00,
2013-02-09 09:10:00,23.4,21.4,29.35,WNW,285,0.0,0.0,92,0.00,,,0.00,VWS V14.01,2013-02-09 14:10:00,
2013-02-09 09:15:00,23.4,21.4,29.38,WSW,255,0.0,0.0,92,0.00,,,0.00,VWS V14.01,2013-02-09 14:15:00,
2013-02-09 09:20:00,23.4,21.4,29.38,SE,138,0.0,0.0,92,0.00,,,0.00,VWS V14.01,2013-02-09 14:20:00,
2013-02-09 09:25:00,23.4,21.4,29.38,SSE,148,0.0,0.0,92,0.00,,,0.00,VWS V14.01,2013-02-09 14:25:00,
2013-02-09 09:30:00,23.5,21.6,29.38,SSW,203,0.0,0.0,92,0.00,,,0.00,VWS V14.01,2013-02-09 14:30:00,
2013-02-09 09:35:00,23.5,21.6,29.38,East,80,0.0,0.0,92,0.00,,,0.00,VWS V14.01,2013-02-09 14:35:00,
2013-02-09 09:40:00,23.5,21.6,29.38,NNE,24,0.0,0.0,92,0.00,,,0.00,VWS V14.01,2013-02-09 14:40:00,
2013-02-09 09:45:00,23.5,21.6,29.38,WSW,246,0.0,0.0,92,0.00,,,0.00,VWS V14.01,2013-02-09 14:45:00,
2013-02-09 09:50:00,23.4,21.4,29.38,WNW,291,0.0,0.0,92,0.00,,,0.00,VWS V14.01,2013-02-09 14:50:00,
2013-02-09 09:55:00,23.2,21.0,29.41,SW,231,0.0,0.0,91,0.00,,,0.00,VWS V14.01,2013-02-09 14:55:00,
2013-02-09 09:59:00,23.2,21.0,29.41,WSW,242,0.0,0.0,91,0.00,,,0.00,VWS V14.01,2013-02-09 14:59:00,
2013-02-09 10:04:00,23.2,21.0,29.41,ENE,64,0.0,0.0,91,0.00,,,0.00,VWS V14.01,2013-02-09 15:04:00,
2013-02-09 10:09:00,23.0,21.0,29.41,West,276,0.0,0.0,92,0.00,,,0.00,VWS V14.01,2013-02-09 15:09:00,
2013-02-09 10:14:00,23.0,21.0,29.41,ENE,61,0.0,0.0,92,0.00,,,0.00,VWS V14.01,2013-02-09 15:14:00,
2013-02-09 10:19:00,23.0,21.0,29.41,South,176,0.0,0.0,92,0.00,,,0.00,VWS V14.01,2013-02-09 15:19:00,
2013-02-09 10:24:00,23.0,20.8,29.41,SSE,150,0.0,0.0,91,0.00,,,0.00,VWS V14.01,2013-02-09 15:24:00,
2013-02-09 10:29:00,23.0,20.8,29.41,SSE,153,0.0,0.0,91,0.00,,,0.00,VWS V14.01,2013-02-09 15:29:00,
2013-02-09 10:34:00,23.0,20.8,29.41,West,264,0.0,0.0,91,0.00,,,0.00,VWS V14.01,2013-02-09 15:34:00,
2013-02-09 10:39:00,23.0,20.8,29.41,East,79,0.0,0.0,91,0.00,,,0.00,VWS V14.01,2013-02-09 15:39:00,
2013-02-09 10:44:00,23.0,20.8,29.41,NW,305,0.0,0.0,91,0.00,,,0.00,VWS V14.01,2013-02-09 15:44:00,
2013-02-09 10:49:00,23.0,20.8,29.41,ESE,115,0.0,0.0,91,0.00,,,0.00,VWS V14.01,2013-02-09 15:49:00,
2013-02-09 10:54:00,23.0,20.8,29.41,West,274,0.0,0.0,91,0.00,,,0.00,VWS V14.01,2013-02-09 15:54:00,
2013-02-09 10:59:00,22.8,20.3,29.44,South,184,0.0,0.0,90,0.00,,,0.00,VWS V14.01,2013-02-09 15:59:00,
2013-02-09 11:04:00,22.8,20.3,29.44,ENE,78,0.0,0.0,90,0.00,,,0.00,VWS V14.01,2013-02-09 16:04:00,
2013-02-09 11:09:00,23.0,20.5,29.44,NNE,23,0.0,0.0,90,0.00,,,0.00,VWS V14.01,2013-02-09 16:09:00,
2013-02-09 11:14:00,23.2,20.7,29.44,South,190,0.0,0.0,90,0.00,,,0.00,VWS V14.01,2013-02-09 16:14:00,
2013-02-09 11:19:00,23.5,21.0,29.44,ESE,109,0.0,0.0,90,0.00,,,0.00,VWS V14.01,2013-02-09 16:19:00,
2013-02-09 11:24:00,23.7,21.2,29.44,West,276,0.0,0.0,90,0.00,,,0.00,VWS V14.01,2013-02-09 16:24:00,
2013-02-09 11:29:00,23.9,21.1,29.44,North,349,0.0,0.0,89,0.00,,,0.00,VWS V14.01,2013-02-09 16:29:00,
2013-02-09 11:34:00,23.9,21.1,29.44,NNW,336,0.0,0.0,89,0.00,,,0.00,VWS V14.01,2013-02-09 16:34:00,
2013-02-09 11:39:00,23.9,21.1,29.44,SE,135,0.0,0.0,89,0.00,,,0.00,VWS V14.01,2013-02-09 16:39:00,
2013-02-09 11:44:00,24.4,21.7,29.44,West,273,0.0,0.0,89,0.00,,,0.00,VWS V14.01,2013-02-09 16:44:00,
2013-02-09 11:49:00,24.4,21.4,29.44,West,260,2.7,2.7,88,0.00,,,0.00,VWS V14.01,2013-02-09 16:49:00,
2013-02-09 11:54:00,24.8,21.8,29.44,SW,235,0.0,0.0,88,0.00,,,0.00,VWS V14.01,2013-02-09 16:54:00,
2013-02-09 11:59:00,25.3,22.0,29.44,North,6,2.2,3.6,87,0.00,,,0.00,VWS V14.01,2013-02-09 16:59:00,
2013-02-09 12:04:00,25.3,21.8,29.44,North,2,3.6,3.6,86,0.00,,,0.00,VWS V14.01,2013-02-09 17:04:00,
2013-02-09 12:09:00,25.3,21.8,29.44,NNE,13,0.0,0.0,86,0.00,,,0.00,VWS V14.01,2013-02-09 17:09:00,
2013-02-09 12:14:00,25.3,21.8,29.44,WSW,250,2.7,2.7,86,0.00,,,0.00,VWS V14.01,2013-02-09 17:14:00,
2013-02-09 12:19:00,25.7,22.1,29.44,West,260,2.2,2.2,86,0.00,,,0.00,VWS V14.01,2013-02-09 17:19:00,
2013-02-09 12:24:00,26.4,22.5,29.44,West,280,0.0,3.1,85,0.00,,,0.00,VWS V14.01,2013-02-09 17:24:00,
2013-02-09 12:29:00,26.4,22.2,29.47,South,190,2.7,2.7,84,0.00,,,0.00,VWS V14.01,2013-02-09 17:29:00,
2013-02-09 12:34:00,26.2,21.8,29.47,SSE,166,4.9,4.9,83,0.00,,,0.00,VWS V14.01,2013-02-09 17:34:00,
2013-02-09 12:39:00,26.1,21.3,29.47,SE,136,2.7,2.7,82,0.00,,,0.00,VWS V14.01,2013-02-09 17:39:00,
2013-02-09 12:44:00,26.1,21.3,29.47,NNE,32,0.0,0.0,82,0.00,,,0.00,VWS V14.01,2013-02-09 17:44:00,
2013-02-09 12:49:00,25.7,20.7,29.47,WSW,251,2.2,2.2,81,0.00,,,0.00,VWS V14.01,2013-02-09 17:49:00,
2013-02-09 12:54:00,25.9,20.6,29.47,ENE,57,0.0,4.0,80,0.00,,,0.00,VWS V14.01,2013-02-09 17:54:00,
2013-02-09 12:59:00,25.9,20.6,29.47,SSE,158,2.2,2.2,80,0.00,,,0.00,VWS V14.01,2013-02-09 17:59:00,
2013-02-09 13:04:00,25.9,20.6,29.47,NE,43,2.7,5.4,80,0.00,,,0.00,VWS V14.01,2013-02-09 18:04:00,
2013-02-09 13:09:00,25.9,20.6,29.47,NW,324,3.6,3.6,80,0.00,,,0.00,VWS V14.01,2013-02-09 18:09:00,
2013-02-09 13:14:00,25.3,19.8,29.47,West,266,2.2,2.2,79,0.00,,,0.00,VWS V14.01,2013-02-09 18:14:00,
2013-02-09 13:19:00,25.5,19.6,29.47,NW,308,0.0,0.0,78,0.00,,,0.00,VWS V14.01,2013-02-09 18:19:00,
2013-02-09 13:24:00,25.5,19.3,29.50,West,274,2.2,2.2,77,0.00,,,0.00,VWS V14.01,2013-02-09 18:24:00,
2013-02-09 13:29:00,25.3,18.9,29.50,North,4,4.9,4.9,76,0.00,,,0.00,VWS V14.01,2013-02-09 18:29:00,
2013-02-09 13:34:00,25.0,17.9,29.50,ENE,66,0.0,3.1,74,0.00,,,0.00,VWS V14.01,2013-02-09 18:34:00,
2013-02-09 13:39:00,25.0,17.9,29.50,East,90,4.0,4.0,74,0.00,,,0.00,VWS V14.01,2013-02-09 18:39:00,
2013-02-09 13:44:00,25.3,18.5,29.50,SE,127,3.1,3.1,75,0.00,,,0.00,VWS V14.01,2013-02-09 18:44:00,
2013-02-09 13:49:00,25.3,18.5,29.50,NE,52,2.7,2.7,75,0.00,,,0.00,VWS V14.01,2013-02-09 18:49:00,
2013-02-09 13:54:00,25.3,18.5,29.50,SSW,205,0.0,3.1,75,0.00,,,0.00,VWS V14.01,2013-02-09 18:54:00,
2013-02-09 13:59:00,25.7,18.9,29.50,NE,38,2.7,2.7,75,0.00,,,0.00,VWS V14.01,2013-02-09 18:59:00,
2013-02-09 14:04:00,25.3,18.2,29.50,East,85,2.7,3.1,74,0.00,,,0.00,VWS V14.01,2013-02-09 19:04:00,
2013-02-09 14:09:00,25.2,17.7,29.50,North,0,3.6,3.6,73,0.00,,,0.00,VWS V14.01,2013-02-09 19:09:00,
2013-02-09 14:14:00,25.2,17.7,29.50,NNW,328,0.0,4.0,73,0.00,,,0.00,VWS V14.01,2013-02-09 19:14:00,
2013-02-09 14:19:00,24.8,17.4,29.53,NNE,31,0.0,0.0,73,0.00,,,0.00,VWS V14.01,2013-02-09 19:19:00,
2013-02-09 14:24:00,24.8,17.1,29.53,NE,43,0.0,0.0,72,0.00,,,0.00,VWS V14.01,2013-02-09 19:24:00,
2013-02-09 14:29:00,24.6,16.9,29.53,ESE,117,2.7,4.9,72,0.00,,,0.00,VWS V14.01,2013-02-09 19:29:00,
2013-02-09 14:34:00,24.6,16.9,29.53,NW,316,0.0,0.0,72,0.00,,,0.00,VWS V14.01,2013-02-09 19:34:00,
2013-02-09 14:39:00,24.3,16.2,29.53,West,262,0.0,0.0,71,0.00,,,0.00,VWS V14.01,2013-02-09 19:39:00,
2013-02-09 14:44:00,24.3,16.2,29.53,WNW,285,0.0,0.0,71,0.00,,,0.00,VWS V14.01,2013-02-09 19:44:00,
2013-02-09 14:49:00,24.3,16.2,29.53,ESE,115,0.0,0.0,71,0.00,,,0.00,VWS V14.01,2013-02-09 19:49:00,
2013-02-09 14:54:00,23.9,15.9,29.56,ENE,71,0.0,4.9,71,0.00,,,0.00,VWS V14.01,2013-02-09 19:54:00,
2013-02-09 14:59:00,23.9,15.9,29.56,North,5,0.0,0.0,71,0.00,,,0.00,VWS V14.01,2013-02-09 19:59:00,
2013-02-09 15:04:00,24.1,16.7,29.56,WSW,239,0.0,0.0,73,0.00,,,0.00,VWS V14.01,2013-02-09 20:04:00,
2013-02-09 15:09:00,24.1,16.7,29.56,SW,214,0.0,0.0,73,0.00,,,0.00,VWS V14.01,2013-02-09 20:09:00,
2013-02-09 15:14:00,24.3,16.5,29.56,NNE,20,2.7,2.7,72,0.00,,,0.00,VWS V14.01,2013-02-09 20:14:00,
2013-02-09 15:19:00,24.3,16.9,29.56,ESE,107,0.0,0.0,73,0.00,,,0.00,VWS V14.01,2013-02-09 20:19:00,
2013-02-09 15:24:00,24.4,17.0,29.59,NW,326,0.0,0.0,73,0.00,,,0.00,VWS V14.01,2013-02-09 20:24:00,
2013-02-09 15:29:00,24.4,17.0,29.59,ENE,61,2.7,2.7,73,0.00,,,0.00,VWS V14.01,2013-02-09 20:29:00,
2013-02-09 15:34:00,24.6,17.2,29.59,East,88,3.1,3.1,73,0.00,,,0.00,VWS V14.01,2013-02-09 20:34:00,
2013-02-09 15:39:00,24.4,16.7,29.59,ESE,118,2.7,2.7,72,0.00,,,0.00,VWS V14.01,2013-02-09 20:39:00,
2013-02-09 15:44:00,24.4,16.4,29.59,East,85,0.0,0.0,71,0.00,,,0.00,VWS V14.01,2013-02-09 20:44:00,
2013-02-09 15:49:00,24.3,15.9,29.59,SW,229,0.0,0.0,70,0.00,,,0.00,VWS V14.01,2013-02-09 20:49:00,
2013-02-09 15:54:00,24.1,15.7,29.59,WSW,237,0.0,0.0,70,0.00,,,0.00,VWS V14.01,2013-02-09 20:54:00,
2013-02-09 15:59:00,24.1,16.0,29.59,South,172,0.0,0.0,71,0.00,,,0.00,VWS V14.01,2013-02-09 20:59:00,
2013-02-09 16:04:00,24.1,16.0,29.59,WNW,298,0.0,0.0,71,0.00,,,0.00,VWS V14.01,2013-02-09 21:04:00,
2013-02-09 16:09:00,24.1,15.7,29.59,NW,306,0.0,0.0,70,0.00,,,0.00,VWS V14.01,2013-02-09 21:09:00,
2013-02-09 16:14:00,24.1,15.7,29.59,ESE,118,0.0,0.0,70,0.00,,,0.00,VWS V14.01,2013-02-09 21:14:00,
2013-02-09 16:19:00,24.1,16.0,29.59,SE,127,0.0,0.0,71,0.00,,,0.00,VWS V14.01,2013-02-09 21:19:00,
2013-02-09 16:24:00,24.1,16.4,29.62,SE,138,0.0,0.0,72,0.00,,,0.00,VWS V14.01,2013-02-09 21:24:00,
2013-02-09 16:29:00,23.9,15.6,29.62,West,272,2.7,2.7,70,0.00,,,0.00,VWS V14.01,2013-02-09 21:29:00,
2013-02-09 16:34:00,23.9,15.6,29.62,SW,225,4.0,4.0,70,0.00,,,0.00,VWS V14.01,2013-02-09 21:34:00,
2013-02-09 16:39:00,23.9,15.6,29.62,ENE,73,3.6,3.6,70,0.00,,,0.00,VWS V14.01,2013-02-09 21:39:00,
2013-02-09 16:44:00,23.4,14.0,29.62,NNE,19,4.0,4.0,67,0.00,,,0.00,VWS V14.01,2013-02-09 21:44:00,
2013-02-09 16:49:00,23.4,14.0,29.62,West,281,0.0,3.1,67,0.00,,,0.00,VWS V14.01,2013-02-09 21:49:00,
2013-02-09 16:54:00,23.4,14.0,29.62,ENE,59,0.0,0.0,67,0.00,,,0.00,VWS V14.01,2013-02-09 21:54:00,
2013-02-09 16:59:00,23.2,14.9,29.62,NE,42,2.2,2.2,70,0.00,,,0.00,VWS V14.01,2013-02-09 21:59:00,
2013-02-09 17:04:00,23.0,15.0,29.62,SE,129,2.2,2.2,71,0.00,,,0.00,VWS V14.01,2013-02-09 22:04:00,
2013-02-09 17:09:00,22.8,14.8,29.62,SE,126,0.0,0.0,71,0.00,,,0.00,VWS V14.01,2013-02-09 22:09:00,
2013-02-09 17:14:00,22.6,14.7,29.65,NNE,28,0.0,0.0,71,0.00,,,0.00,VWS V14.01,2013-02-09 22:14:00,
2013-02-09 17:19:00,22.6,14.7,29.65,North,353,2.7,2.7,71,0.00,,,0.00,VWS V14.01,2013-02-09 22:19:00,
2013-02-09 17:24:00,22.6,14.7,29.65,SE,136,2.7,2.7,71,0.00,,,0.00,VWS V14.01,2013-02-09 22:24:00,
2013-02-09 17:29:00,22.1,14.8,29.65,North,0,0.0,0.0,73,0.00,,,0.00,VWS V14.01,2013-02-09 22:29:00,
2013-02-09 17:34:00,21.9,14.6,29.65,NE,41,0.0,2.7,73,0.00,,,0.00,VWS V14.01,2013-02-09 22:34:00,
2013-02-09 17:39:00,21.7,14.1,29.65,SW,232,3.1,3.1,72,0.00,,,0.00,VWS V14.01,2013-02-09 22:39:00,
2013-02-09 17:44:00,21.4,13.8,29.68,SW,236,0.0,0.0,72,0.00,,,0.00,VWS V14.01,2013-02-09 22:44:00,
2013-02-09 17:49:00,21.4,13.8,29.68,SE,145,2.2,2.2,72,0.00,,,0.00,VWS V14.01,2013-02-09 22:49:00,
2013-02-09 17:54:00,21.4,13.8,29.68,ENE,74,0.0,0.0,72,0.00,,,0.00,VWS V14.01,2013-02-09 22:54:00,
2013-02-09 17:59:00,21.0,13.7,29.68,SE,129,0.0,0.0,73,0.00,,,0.00,VWS V14.01,2013-02-09 22:59:00,
2013-02-09 18:04:00,21.0,14.1,29.68,NNE,22,0.0,0.0,74,0.00,,,0.00,VWS V14.01,2013-02-09 23:04:00,
2013-02-09 18:09:00,21.0,14.1,29.68,SE,141,0.0,0.0,74,0.00,,,0.00,VWS V14.01,2013-02-09 23:09:00,
2013-02-09 18:14:00,21.0,14.1,29.68,NE,43,0.0,0.0,74,0.00,,,0.00,VWS V14.01,2013-02-09 23:14:00,
2013-02-09 18:19:00,21.0,14.1,29.68,NNW,332,2.7,2.7,74,0.00,,,0.00,VWS V14.01,2013-02-09 23:19:00,
2013-02-09 18:24:00,20.7,12.4,29.68,North,357,0.0,2.2,70,0.00,,,0.00,VWS V14.01,2013-02-09 23:24:00,
2013-02-09 18:29:00,20.7,12.4,29.68,SE,133,2.7,2.7,70,0.00,,,0.00,VWS V14.01,2013-02-09 23:29:00,
2013-02-09 18:34:00,20.5,11.9,29.68,North,5,0.0,0.0,69,0.00,,,0.00,VWS V14.01,2013-02-09 23:34:00,
2013-02-09 18:39:00,20.3,12.7,29.68,NW,304,3.1,3.1,72,0.00,,,0.00,VWS V14.01,2013-02-09 23:39:00,
2013-02-09 18:44:00,20.3,12.7,29.68,NW,315,0.0,0.0,72,0.00,,,0.00,VWS V14.01,2013-02-09 23:44:00,
2013-02-09 18:49:00,19.9,12.1,29.71,NNE,29,0.0,4.0,71,0.00,,,0.00,VWS V14.01,2013-02-09 23:49:00,
2013-02-09 18:54:00,19.9,12.1,29.71,North,4,2.2,2.2,71,0.00,,,0.00,VWS V14.01,2013-02-09 23:54:00,
2013-02-09 18:59:00,19.9,12.1,29.71,ESE,103,0.0,0.0,71,0.00,,,0.00,VWS V14.01,2013-02-09 23:59:00,
2013-02-09 19:04:00,19.9,12.1,29.71,SSW,210,0.0,0.0,71,0.00,,,0.00,VWS V14.01,2013-02-10 00:04:00,
2013-02-09 19:09:00,18.9,11.0,29.74,South,173,0.0,0.0,71,0.00,,,0.00,VWS V14.01,2013-02-10 00:09:00,
2013-02-09 19:14:00,18.9,11.0,29.74,ESE,121,0.0,0.0,71,0.00,,,0.00,VWS V14.01,2013-02-10 00:14:00,
2013-02-09 19:19:00,18.5,10.7,29.74,SW,223,0.0,0.0,71,0.00,,,0.00,VWS V14.01,2013-02-10 00:19:00,
2013-02-09 19:24:00,18.3,10.5,29.74,SE,132,3.1,3.1,71,0.00,,,0.00,VWS V14.01,2013-02-10 00:24:00,
2013-02-09 19:29:00,18.3,10.5,29.74,NE,42,0.0,0.0,71,0.00,,,0.00,VWS V14.01,2013-02-10 00:29:00,
2013-02-09 19:34:00,18.1,10.6,29.74,West,280,0.0,0.0,72,0.00,,,0.00,VWS V14.01,2013-02-10 00:34:00,
2013-02-09 19:39:00,17.8,10.3,29.74,WNW,282,0.0,0.0,72,0.00,,,0.00,VWS V14.01,2013-02-10 00:39:00,
2013-02-09 19:44:00,17.4,9.9,29.74,WSW,253,0.0,0.0,72,0.00,,,0.00,VWS V14.01,2013-02-10 00:44:00,
2013-02-09 19:49:00,17.4,9.9,29.74,SSW,200,0.0,0.0,72,0.00,,,0.00,VWS V14.01,2013-02-10 00:49:00,
2013-02-09 19:54:00,17.4,9.9,29.74,North,353,0.0,0.0,72,0.00,,,0.00,VWS V14.01,2013-02-10 00:54:00,
2013-02-09 19:59:00,17.4,10.3,29.74,North,353,0.0,0.0,73,0.00,,,0.00,VWS V14.01,2013-02-10 00:59:00,
2013-02-09 20:04:00,17.2,9.8,29.74,ENE,62,4.9,4.9,72,0.00,,,0.00,VWS V14.01,2013-02-10 01:04:00,
2013-02-09 20:09:00,17.1,9.9,29.77,SE,131,3.6,3.6,73,0.00,,,0.00,VWS V14.01,2013-02-10 01:09:00,
2013-02-09 20:14:00,17.1,9.6,29.77,North,3,4.9,4.9,72,0.00,,,0.00,VWS V14.01,2013-02-10 01:14:00,
2013-02-09 20:19:00,16.9,9.1,29.77,WNW,288,0.0,0.0,71,0.00,,,0.00,VWS V14.01,2013-02-10 01:19:00,
2013-02-09 20:24:00,16.9,9.1,29.77,WSW,252,0.0,0.0,71,0.00,,,0.00,VWS V14.01,2013-02-10 01:24:00,
2013-02-09 20:29:00,16.9,9.1,29.77,NW,310,0.0,0.0,71,0.00,,,0.00,VWS V14.01,2013-02-10 01:29:00,
2013-02-09 20:34:00,16.7,8.9,29.77,WNW,290,2.2,2.2,71,0.00,,,0.00,VWS V14.01,2013-02-10 01:34:00,
2013-02-09 20:39:00,16.3,8.6,29.77,WNW,290,0.0,2.2,71,0.00,,,0.00,VWS V14.01,2013-02-10 01:39:00,
2013-02-09 20:44:00,16.2,8.7,29.77,SSE,154,5.8,5.8,72,0.00,,,0.00,VWS V14.01,2013-02-10 01:44:00,
2013-02-09 20:49:00,16.2,8.4,29.77,SE,141,0.0,0.0,71,0.00,,,0.00,VWS V14.01,2013-02-10 01:49:00,
2013-02-09 20:54:00,16.2,8.4,29.77,West,279,2.7,2.7,71,0.00,,,0.00,VWS V14.01,2013-02-10 01:54:00,
2013-02-09 20:59:00,15.8,8.1,29.77,NNE,26,0.0,0.0,71,0.00,,,0.00,VWS V14.01,2013-02-10 01:59:00,
2013-02-09 21:04:00,15.8,8.1,29.77,WSW,255,0.0,0.0,71,0.00,,,0.00,VWS V14.01,2013-02-10 02:04:00,
2013-02-09 21:09:00,15.3,7.9,29.77,NNW,340,0.0,0.0,72,0.00,,,0.00,VWS V14.01,2013-02-10 02:09:00,
2013-02-09 21:14:00,15.3,7.6,29.80,North,2,0.0,3.1,71,0.00,,,0.00,VWS V14.01,2013-02-10 02:14:00,
2013-02-09 21:19:00,15.3,7.6,29.80,SSW,194,2.2,2.2,71,0.00,,,0.00,VWS V14.01,2013-02-10 02:19:00,
2013-02-09 21:24:00,15.1,7.4,29.80,SSE,151,3.6,3.6,71,0.00,,,0.00,VWS V14.01,2013-02-10 02:24:00,
2013-02-09 21:29:00,14.9,7.5,29.80,SW,232,0.0,0.0,72,0.00,,,0.00,VWS V14.01,2013-02-10 02:29:00,
2013-02-09 21:34:00,14.9,7.5,29.80,NNE,15,0.0,0.0,72,0.00,,,0.00,VWS V14.01,2013-02-10 02:34:00,
2013-02-09 21:39:00,14.5,6.9,29.80,NW,316,0.0,0.0,71,0.00,,,0.00,VWS V14.01,2013-02-10 02:39:00,
2013-02-09 21:44:00,14.5,6.9,29.80,West,267,0.0,0.0,71,0.00,,,0.00,VWS V14.01,2013-02-10 02:44:00,
2013-02-09 21:49:00,14.5,6.9,29.80,SSW,193,0.0,3.6,71,0.00,,,0.00,VWS V14.01,2013-02-10 02:49:00,
2013-02-09 21:54:00,14.4,7.0,29.80,WNW,284,2.2,2.2,72,0.00,,,0.00,VWS V14.01,2013-02-10 02:54:00,
2013-02-09 21:59:00,14.4,7.0,29.80,NNE,27,0.0,0.0,72,0.00,,,0.00,VWS V14.01,2013-02-10 02:59:00,
2013-02-09 22:04:00,14.2,6.8,29.80,SW,233,0.0,2.7,72,0.00,,,0.00,VWS V14.01,2013-02-10 03:04:00,
2013-02-09 22:09:00,14.2,6.8,29.80,NE,49,0.0,0.0,72,0.00,,,0.00,VWS V14.01,2013-02-10 03:09:00,
2013-02-09 22:14:00,14.0,7.0,29.80,South,169,0.0,0.0,73,0.00,,,0.00,VWS V14.01,2013-02-10 03:14:00,
2013-02-09 22:19:00,14.0,7.0,29.80,North,6,0.0,0.0,73,0.00,,,0.00,VWS V14.01,2013-02-10 03:19:00,
2013-02-09 22:24:00,14.0,7.0,29.80,NW,317,0.0,0.0,73,0.00,,,0.00,VWS V14.01,2013-02-10 03:24:00,
2013-02-09 22:29:00,14.0,7.0,29.83,NNE,13,0.0,0.0,73,0.00,,,0.00,VWS V14.01,2013-02-10 03:29:00,
2013-02-09 22:34:00,13.8,6.8,29.83,WNW,289,0.0,0.0,73,0.00,,,0.00,VWS V14.01,2013-02-10 03:34:00,
2013-02-09 22:39:00,13.6,6.6,29.83,SW,229,0.0,0.0,73,0.00,,,0.00,VWS V14.01,2013-02-10 03:39:00,
2013-02-09 22:44:00,13.6,6.6,29.83,SSW,213,0.0,0.0,73,0.00,,,0.00,VWS V14.01,2013-02-10 03:44:00,
2013-02-09 22:49:00,13.5,6.4,29.83,ESE,111,0.0,0.0,73,0.00,,,0.00,VWS V14.01,2013-02-10 03:49:00,
2013-02-09 22:54:00,13.5,6.4,29.83,ESE,108,0.0,0.0,73,0.00,,,0.00,VWS V14.01,2013-02-10 03:54:00,
2013-02-09 22:59:00,13.5,6.4,29.83,ENE,78,0.0,0.0,73,0.00,,,0.00,VWS V14.01,2013-02-10 03:59:00,
2013-02-09 23:04:00,13.1,6.1,29.83,NW,319,0.0,0.0,73,0.00,,,0.00,VWS V14.01,2013-02-10 04:04:00,
2013-02-09 23:09:00,13.3,6.3,29.83,NW,319,0.0,0.0,73,0.00,,,0.00,VWS V14.01,2013-02-10 04:09:00,
2013-02-09 23:14:00,13.3,6.3,29.83,NW,315,0.0,0.0,73,0.00,,,0.00,VWS V14.01,2013-02-10 04:14:00,
2013-02-09 23:19:00,12.9,5.9,29.83,NW,315,0.0,0.0,73,0.00,,,0.00,VWS V14.01,2013-02-10 04:19:00,
2013-02-09 23:24:00,12.9,5.9,29.83,NW,315,0.0,0.0,73,0.00,,,0.00,VWS V14.01,2013-02-10 04:24:00,
2013-02-09 23:29:00,12.7,5.7,29.83,NNW,329,0.0,0.0,73,0.00,,,0.00,VWS V14.01,2013-02-10 04:29:00,
2013-02-09 23:34:00,12.7,5.7,29.83,WNW,286,0.0,0.0,73,0.00,,,0.00,VWS V14.01,2013-02-10 04:34:00,
2013-02-09 23:39:00,12.9,5.9,29.83,NW,311,0.0,0.0,73,0.00,,,0.00,VWS V14.01,2013-02-10 04:39:00,
2013-02-09 23:44:00,12.9,5.9,29.83,NW,311,0.0,0.0,73,0.00,,,0.00,VWS V14.01,2013-02-10 04:44:00,
2013-02-09 23:49:00,12.9,5.9,29.83,NW,321,0.0,0.0,73,0.00,,,0.00,VWS V14.01,2013-02-10 04:49:00,
2013-02-09 23:54:00,12.7,5.7,29.83,NNW,329,0.0,0.0,73,0.00,,,0.00,VWS V14.01,2013-02-10 04:54:00,
2013-02-09 23:59:00,12.7,5.7,29.83,NW,324,0.0,0.0,73,0.00,,,0.00,VWS V14.01,2013-02-10 04:59:00,